EW2407 Weather Reports


time (UTC)temp
C
wind
direction
speed
KPH
gust
KPH
rain 1hr
cm
rain 24hr
cm
rain mn
cm
humidity
%
barometer
mb
20260505191543 8 360 3.2 9.7 0.00 0.00 0.00 84 1011.4
20260505190042 8 360 3.2 9.7 0.00 0.00 0.00 82 1011.4
20260505184540 9 360 1.6 8.0 0.00 0.00 0.00 81 1011.3
20260505183040 10 360 3.2 11.3 0.00 0.00 0.00 79 1011.3
20260505181540 11 360 1.6 11.3 0.00 0.00 0.00 78 1011.3
20260505180043 11 360 6.4 12.9 0.00 0.00 0.00 76 1011.3
20260505174539 11 360 3.2 14.5 0.00 0.00 0.00 75 1011.3
20260505173036 11 360 6.4 16.1 0.00 0.00 0.00 74 1011.4
20260505171545 11 360 6.4 14.5 0.00 0.00 0.00 71 1011.3
20260505170038 11 360 6.4 17.7 0.00 0.00 0.00 71 1011.3
20260505164539 11 360 6.4 20.9 0.00 0.00 0.00 71 1011.4
20260505163040 11 360 12.9 22.5 0.00 0.00 0.00 69 1011.4
20260505161533 11 360 12.9 22.5 0.00 0.00 0.00 70 1011.5
20260505153037 10 360 22.5 27.4 0.00 0.00 0.00 55 1011.5
20260505151529 11 360 22.5 25.7 0.00 0.00 0.00 61 1011.6
20260505130116 11 360 16.1 22.5 0.00 0.00 0.00 59 1011.7
20260505124507 11 360 17.7 25.7 0.00 0.00 0.00 61 1011.6
20260505123005 11 360 14.5 24.1 0.00 0.00 0.00 66 1011.7
20260505121504 11 360 14.5 22.5 0.00 0.00 0.00 67 1011.7
20260505120002 11 360 14.5 24.1 0.00 0.00 0.00 68 1011.7
20260505114502 11 360 14.5 25.7 0.00 0.00 0.00 66 1011.7
20260505113108 11 360 16.1 24.1 0.00 0.00 0.00 65 1011.7
20260505111602 11 360 17.7 25.7 0.00 0.00 0.00 67 1011.7
20260505110108 11 360 12.9 22.5 0.00 0.00 0.00 67 1011.7
20260505101550 11 360 11.3 19.3 0.00 0.00 0.00 68 1011.7
20260505100047 10 360 12.9 20.9 0.00 0.00 0.00 67 1011.8
20260505094548 10 360 12.9 22.5 0.00 0.00 0.00 70 1011.7
20260505093043 10 360 12.9 24.1 0.00 0.00 0.00 68 1011.7
20260505091551 10 360 14.5 24.1 0.00 0.00 0.00 71 1011.7
20260505090045 10 360 14.5 24.1 0.00 0.00 0.00 73 1011.7
20260505084558 10 360 16.1 25.7 0.00 0.00 0.00 74 1011.5
20260505083057 10 360 19.3 25.7 0.00 0.00 0.00 75 1011.5
20260505081552 10 360 14.5 22.5 0.00 0.00 0.00 77 1011.3
20260505080044 10 360 19.3 25.7 0.00 0.00 0.00 76 1011.3
20260505074534 10 360 12.9 24.1 0.00 0.00 0.00 78 1011.3
20260505073047 10 360 19.3 25.7 0.00 0.00 0.00 78 1011.2
20260505071543 10 360 19.3 27.4 0.00 0.00 0.00 80 1011.2
20260505070040 9 360 14.5 24.1 0.00 0.00 0.00 81 1011.1
20260505064535 10 360 14.5 27.4 0.00 0.00 0.00 80 1011.0
20260505063037 10 360 14.5 22.5 0.00 0.00 0.00 77 1011.0
20260505061531 9 360 12.9 20.9 0.00 0.00 0.00 79 1011.0
20260505060050 9 360 14.5 25.7 0.00 0.00 0.00 82 1010.9
20260505054526 8 360 19.3 25.7 0.00 0.03 0.00 81 1010.9
20260505053025 8 360 16.1 27.4 0.00 0.03 0.00 83 1010.9
20260505051525 8 360 14.5 25.7 0.00 0.03 0.00 82 1010.9
20260505050123 8 360 12.9 27.4 0.00 0.03 0.00 84 1010.9
20260505041520 8 360 20.9 25.7 0.00 0.05 0.00 84 1010.7
20260505040023 8 360 19.3 25.7 0.00 0.05 0.00 86 1010.7
20260505034516 8 360 20.9 27.4 0.00 0.05 0.00 85 1010.6
20260505033015 8 360 12.9 22.5 0.00 0.05 0.00 83 1010.6
20260505031512 8 360 19.3 25.7 0.00 0.05 0.00 83 1010.6
20260505030011 8 360 19.3 25.7 0.00 0.05 0.00 84 1010.7
20260505024509 8 360 12.9 22.5 0.00 0.08 0.00 83 1010.7
20260505023008 8 360 17.7 29.0 0.00 0.08 0.00 83 1010.8
20260505021507 8 360 14.5 25.7 0.00 0.08 0.00 82 1010.9
20260505020005 8 360 14.5 29.0 0.00 0.08 0.00 83 1010.9
20260505014505 8 360 17.7 29.0 0.00 0.10 0.00 84 1011.0
20260505013002 8 360 17.7 27.4 0.00 0.10 0.00 84 1011.0
20260505011601 8 360 17.7 25.7 0.00 0.10 0.00 84 1011.0
20260505010104 8 360 17.7 29.0 0.00 0.10 0.00 84 1011.1
20260505004556 8 360 16.1 29.0 0.00 0.15 0.00 83 1011.1
20260505003058 8 360 19.3 27.4 0.00 0.15 0.00 83 1011.1
20260505001555 8 360 16.1 32.2 0.00 0.15 0.00 83 1011.1
20260505000053 8 360 20.9 30.6 0.00 0.15 0.00 83 1011.1
20260504234646 8 360 16.1 27.4 0.00 0.28 0.00 82 1011.3
20260504233042 9 360 22.5 29.0 0.00 0.28 0.00 83 1011.2
20260504231540 9 360 17.7 27.4 0.00 0.28 0.00 83 1011.3
20260504230038 9 360 20.9 27.4 0.00 0.28 0.00 84 1011.3
20260504224535 9 360 16.1 27.4 0.00 0.48 0.00 84 1011.4
20260504223046 9 360 14.5 29.0 0.00 0.48 0.00 85 1011.5
20260504221531 9 360 17.7 29.0 0.00 0.48 0.00 84 1011.4
20260504220031 10 360 17.7 25.7 0.00 0.48 0.00 84 1011.5
20260504214526 10 360 16.1 25.7 0.00 0.56 0.48 83 1011.5
20260504213029 10 360 16.1 25.7 0.00 0.56 0.48 83 1011.5
20260504211535 10 360 14.5 25.7 0.00 0.56 0.48 83 1011.5
20260504210025 10 360 19.3 29.0 0.00 0.56 0.48 83 1011.5
20260504204524 10 360 17.7 25.7 0.00 0.61 0.48 83 1011.5
20260504203024 10 360 12.9 20.9 0.00 0.61 0.48 86 1011.4
20260504201523 10 360 6.4 14.5 0.00 0.61 0.48 84 1011.4
20260504200023 10 360 12.9 17.7 0.00 0.61 0.48 83 1011.4
20260504194521 10 360 16.1 19.3 0.00 0.61 0.48 82 1011.3
20260504193022 10 360 16.1 24.1 0.00 0.61 0.48 81 1011.4